Content
SEND FEEDBACK

Daily
Averages
Monthly
Summary
United States of America

NEW YORK - CENTRAL PARK, NEW YORK


Home > North America > United States > New York
Elevation: 14 feet     Latitude: 40 47N     Longitude: 073 58W

WEATHER
 
SELECT A DAY
Number of Records: 150,546;   Date Range: 11/1/95 - 9/30/14
 
SHARE

PRINT THIS DATA

[ ← Previous Day ]
WEATHER ALMANAC - AUGUST 18, 2014
[ Next Day → ]
[ °C ]   °F
Weather ElementAverageHighLow
Temperature71.9 °F80.6 °F (2:49 pm)63 °F (6:51 am)
Dewpoint52.2 °F55 °F (6:51 pm)50 °F (12:51 am)
Humidity50.8 %70 % (6:51 am)36 % (8:51 pm)
Barometer29.88 in29.93 in (12:51 pm)29.83 in (4:51 pm)
Wind Speed4.5 mph10.4 mph (4:51 pm)
Weather ElementAverage
Visibility10 mi
Wind DirectionENE (65.8 °)

Weather ElementTotal
Precipitation---
Cooling Degree Days6.8 (Base 65)
Growing Degree Days21.8 (Base 50)
Averaged from 24 records on August 18, 2014
WEATHER CONDITIONS BREAKOUT
WIND DIRECTION BREAKOUT
WEATHER BY HOUR - AUGUST 18, 2014
[ °C ]   °F
Local TimeTemperatureDewpointHumidityBarometerVisibilityWind DirectionWind SpeedGust SpeedPrecipitationEventsConditions
12:51 AM68.0 °F52.0 °F56 %29.90 in10.0 miVariable4.6 mphClear
1:51 AM66.9 °F52.0 °F59 %29.89 in10.0 miVariable4.6 mphClear
2:51 AM66.9 °F51.1 °F57 %29.89 in10.0 miCalmClear
3:51 AM66.0 °F52.0 °F60 %29.88 in10.0 miNorthClear
4:51 AM64.9 °F52.0 °F63 %29.88 in10.0 miVariable3.5 mphClear
5:51 AM63.0 °F52.0 °F67 %29.89 in10.0 miVariable5.8 mphClear
6:51 AM63.0 °F53.1 °F70 %29.91 in10.0 miWNW (300°)5.8 mphClear
7:51 AM64.9 °F53.1 °F65 %29.92 in10.0 miWNW (290°)8.1 mphClear
8:51 AM66.9 °F53.1 °F61 %29.93 in10.0 miVariable3.5 mphClear
9:51 AM70.0 °F54.0 °F57 %29.92 in10.0 miVariable4.6 mphClear
10:51 AM73.0 °F53.1 °F49 %29.91 in10.0 miNorthClear
11:51 AM73.0 °F55.0 °F53 %29.89 in10.0 miWest (270°)6.9 mphMostly Cloudy
12:51 PM78.1 °F54.0 °F43 %29.87 in10.0 miWest (280°)10.4 mphMostly Cloudy
1:51 PM79.0 °F53.1 °F40 %29.86 in10.0 miVariable5.8 mphPartly Cloudy
2:51 PM78.1 °F52.0 °F40 %29.84 in10.0 miNorthPartly Cloudy
3:51 PM80.1 °F53.1 °F39 %29.83 in10.0 miVariable3.5 mphScattered Clouds
4:51 PM80.6 °F51.8 °F37 %29.85 in10.0 miCalmClear
5:51 PM80.1 °F51.1 °F36 %29.83 in10.0 miNW (310°)8.1 mphClear
6:51 PM79.0 °F50.0 °F36 %29.83 in10.0 miVariable3.5 mphClear
7:51 PM75.9 °F51.1 °F42 %29.84 in10.0 miNNE (20°)3.5 mphClear
8:51 PM73.0 °F51.1 °F46 %29.86 in10.0 miNNE (30°)4.6 mphClear
9:51 PM72.0 °F50.0 °F46 %29.87 in10.0 miCalmClear
10:51 PM72.0 °F50.0 °F46 %29.87 in10.0 miVariable4.6 mphClear
11:51 PM71.1 °F52.0 °F51 %29.88 in10.0 miEast (80°)3.5 mphClear
Hourly data recorded from KNYC, located miles away from New York - Central Park, New York







STORIES FROM OUR PARTNERS